International Virtual Aviation Organisation

Russian Federation and Kazakhstan MCD

 

Карточка аэропорта UHHH

Внимание!
Информация на этой странице в стадии наполнения.
Если вы не увидели какой-то информации, или заметили неточность - пожалуйста сообщите нам!
Спасибо!
Команда RU-STAFF
Название аэропортаНовый
Название аэропорта (англ.)Novy
Превышение244 ft. (74.4 m.)
Координаты48°31.68', 135°11.4'
Высота перехода900m
Эшелон переходаFL050
Коды ответчика0201-0277
Зона ОрВДХабаровск РПИ (UHHH)
Данные METARUHHH 140830Z 25007MPS CAVOK 03/M14 Q1020 R23L/090060 NOSIG RMK QFE759/1012
Проноз погоды (TAF)UHHH 140745Z 1409/1515 25008MPS CAVOK
NOTAMshow/hide NOTAM
AWOS   TABLE

Информация о ВПП

ВПП Длина ВПП (м.) Покрытие Курс ВПП Частота ILS
05R4000Асфальтобетон53110.3
05L3500Асфальтобетон53 
23R3500Асфальтобетон233 
23L4000Асфальтобетон233111.15

Диспетчерские позиции

Позывной Наименование органа УВД Частота
UHHH_APPХабаровск-Подход125.2
UHHH_R_APPХабаровск-Круг120.3
UHHH_TWRХабаровск-Старт/Посадка119.3
UHHH_GNDХабаровск Руление121.8



Спутниковое изображение